Location: Spondin
(51.8528°N, 111.6118°W)
Time: 18:46:53
(UTC+00:00)

Vanguard 2 Rocket - Pass Details

Date: 29 May 2022
Orbit: 553 x 3323 km, 32.9° (Epoch: 02 July)

Event Time Altitude Azimuth Distance (km) Brightness Sun altitude
Rises 21:52:25 0° 248° (WSW) 7,307 12.2 48.5°
Reaches altitude 10° 21:58:03 10° 242° (WSW) 6,206 12.1 47.7°
Maximum altitude 22:14:14 37° 185° (S) 3,668 10.8 45.5°
Drops below altitude 10° 22:25:37 10° 125° (SE) 4,395 10.2 43.9°
Sets 22:28:49 0° 116° (ESE) 5,043 10.4 43.5°
